Showing default

COSMOS 2272, 23003

Orbit data source: Space-Track

COSMOS 2272, 23003 is a payload satellite owned by VKS (CIS) in LEO that was launched on Sat, 12 Feb 1994 UTC via a TSIKLON-3 launch vehicle from the Plesetsk Missile And Space Complex (PKMTR). Payload-class satellites include a variety of spacecraft equipped with specific instruments for various scientific and technological missions. These include communications satellites like Starlink; space stations such as the ISS; scientific satellites like the Hubble; Earth observation satellites from companies like Planet Labs, Umbra, and HawkEye 360; GPS; miniature CubeSats for education and research; and military/defense satellites.

Loading next visibility...
Identifier
23003, 1994-011E
Orbit
LEO
Country
Flag of CISCIS
Related business
Manufacturer
NPO PM
Mission
Defense Communications
Bus & Motor
STRELA-3, Unknown motor
Mass
225 kg wet, 225 kg dry
Launch date (UTC)
1994-02-12 (32 years ago)
Launch vehicle
TSIKLON-3
Launch site
Plesetsk Missile And Space Complex (PKMTR)
Object type
Payload
Rocket body
Debris
Shape & HBR
Cyl, 0.8 m
Radar Cross Section
1.257 m², Medium (>0.1 m² and < 1m²)

Expand to show TLE details & history
Last TLE update: 9 hours ago

TLE from 9 hours ago
0 COSMOS 2272
1 23003U 94011E   25304.79846073  .00000044  00000-0  17999-3 0  9997
2 23003  82.5701  77.7543 0010810 317.3761  42.6491 12.64393455463566
Epoch: 2025-10-31T19:09Z
TLE epoch observation values (Epoch: 2025-10-31T19:09:47.007Z)
Latitude
-0.00006°
Longitude
109.97071°
Altitude
1,401.41 km
Speed
7.162 km/s
True Right ascension
05h 11m 01s
True Declination
0° 00' 00"
Sunlit
Object was in full shadow at epoch
Visualization orbit readout
Latitude
Unknown
Longitude
Unknown
Altitude
Unknown
Speed
Unknown
Apparent Right ascension
Unknown
Apparent Declination
Unknown
Sunlit
N/A
Visualization observer readout
Local Sidereal Time
23:48:25
Azimuth
Unknown
Elevation
Unknown
Doppler factor
Unknown
Orbital elements
Apogee altitude
1,410.591 km
Perigee altitude
1,393.77 km
Semi-major axis
7,780.318 km
Eccentricity
0.00108
Inclination
82.5701°
RAAN
77.7543°
Arg. of periapsis
317.3761°
True anomaly
42.73311°
Mean anomaly
42.6491°
Eccentric anomaly
42.6911°
Mean motion
3.16262 °/min
Orbital period
113.83 mins
BSTAR
0.00017999
Loading maneuver chart data...
Computing Atmospheric mass density...
Loading historical data...
Loading historical data...
Loading historical data...
Loading historical data...
Loading historical data...
Loading historical data...
Loading historical data...

Documentation

Showing up to 5 results
|